Fitzgerald Muni, Fitzgerald,, GA

1:22 AM EDT on March 24, 2017 (GMT -0400)
Fitzgerald Municipal

Weather History for KFZG - December, 2013

Change the Weather History Date:

Wednesday, December 18, 2013

  Actual Average Record
Temperature  
Mean Temperature 48 °F -  
Max Temperature 61 °F 59 °F 67 °F (2014)
Min Temperature 35 °F 36 °F 35 °F (2013)
Degree Days  
Heating Degree Days 16    
Moisture  
Dew Point 33 °F    
Average Humidity 60    
Maximum Humidity 98    
Minimum Humidity 25    
Precipitation  
Precipitation 0.00 in - - ()
Sea Level Pressure  
Sea Level Pressure 30.30 in    
Wind  
Wind Speed 5 mph (NNW)    
Max Wind Speed 15 mph    
Max Gust Speed 22 mph    
Visibility 10 miles    
Events      
Averages and records for this station are not official NWS values.
T = Trace of Precipitation, MM = Missing Value Source: NWS Daily Summary

Daily Weather History Graph

Daily Weather History Graph

Search for Another Location

Airport or City:

Trip Planner

Search our weather history database for the weather conditions in past years. The results will help you decide how hot, cold, wet, or windy it might be!

Date:

Astronomy

Dec. 18, 2013 Rise Set
Actual Time 7:27 AM EST 5:32 PM EST
Civil Twilight 7:00 AM EST 5:59 PM EST
Nautical Twilight 6:29 AM EST 6:29 PM EST
Astronomical Twilight 6:00 AM EST 6:59 PM EST
Moon 6:58 PM EST (12/18) 8:10 AM EST (12/18)
Length of Visible Light 10h 58m
Length of Day
10h 05m
Full, 98% of the Moon is Illuminated
Dec 18
Full
Dec 25
Last Quarter
Jan 1
New
Jan 7
First Quarter
Jan 15
Full

Hourly Weather History & Observations

Time (EST) Temp. Windchill Dew Point Humidity Pressure Visibility Wind Dir Wind Speed Gust Speed Precip Events Conditions
12:15 AM 46.8 °F - 38.3 °F 72% 30.22 in 10.0 mi WSW 4.6 mph - N/A   Clear
12:35 AM 46.8 °F - 38.3 °F 72% 30.22 in 10.0 mi WSW 3.5 mph - N/A   Clear
12:50 AM 47.5 °F - 37.9 °F 69% 30.22 in 10.0 mi WSW 3.5 mph - N/A   Clear
1:15 AM 47.1 °F - 38.3 °F 71% 30.22 in 10.0 mi Calm Calm - N/A   Clear
1:35 AM 45.5 °F - 37.6 °F 74% 30.23 in 10.0 mi Calm Calm - N/A   Clear
1:55 AM 48.2 °F - 37.4 °F 66% 30.23 in 10.0 mi Calm Calm - N/A   Clear
2:15 AM 48.6 °F - 37.0 °F 64% 30.23 in 10.0 mi Calm Calm - N/A   Clear
2:35 AM 47.3 °F - 36.9 °F 67% 30.22 in 10.0 mi Calm Calm - N/A   Clear
2:55 AM 48.4 °F - 36.9 °F 64% 30.23 in 10.0 mi West 4.6 mph - N/A   Clear
3:15 AM 49.3 °F - 37.4 °F 64% 30.23 in 10.0 mi WNW 6.9 mph - N/A   Clear
3:35 AM 49.5 °F - 37.6 °F 64% 30.24 in 10.0 mi WNW 6.9 mph - N/A   Clear
3:55 AM 48.7 °F - 37.8 °F 66% 30.24 in 10.0 mi WNW 5.8 mph - N/A   Clear
4:15 AM 48.2 °F - 37.8 °F 67% 30.24 in 10.0 mi NW 5.8 mph - N/A   Clear
4:35 AM 47.8 °F - 37.8 °F 68% 30.25 in 10.0 mi NW 6.9 mph - N/A   Clear
4:55 AM 47.5 °F - 37.8 °F 69% 30.25 in 10.0 mi NW 8.1 mph - N/A   Clear
5:15 AM 46.8 °F - 37.9 °F 71% 30.25 in 10.0 mi NNW 8.1 mph - N/A   Clear
5:35 AM 46.4 °F 41.9 °F 37.9 °F 72% 30.27 in 10.0 mi NNW 9.2 mph - N/A   Clear
5:55 AM 45.7 °F 41.5 °F 37.9 °F 74% 30.28 in 10.0 mi NNW 8.1 mph - N/A   Clear
6:15 AM 44.8 °F 41.0 °F 37.6 °F 76% 30.29 in 10.0 mi NNW 6.9 mph - N/A   Clear
6:35 AM 43.7 °F 40.3 °F 37.4 °F 78% 30.29 in 10.0 mi NNW 5.8 mph - N/A   Clear
6:55 AM 44.2 °F 39.7 °F 36.0 °F 73% 30.30 in 10.0 mi North 8.1 mph - N/A   Clear
7:10 AM 44.4 °F 39.0 °F 34.5 °F 68% 30.31 in 10.0 mi North 10.4 mph - N/A   Clear
7:35 AM 43.9 °F 39.3 °F 33.8 °F 68% 30.32 in 10.0 mi North 8.1 mph - N/A   Clear
7:55 AM 44.1 °F 39.5 °F 34.0 °F 68% 30.32 in 10.0 mi North 8.1 mph - N/A   Clear
8:15 AM 45.0 °F 42.6 °F 34.3 °F 66% 30.33 in 10.0 mi NNW 4.6 mph - N/A   Clear
8:35 AM 46.4 °F 42.4 °F 33.8 °F 62% 30.33 in 10.0 mi NNW 8.1 mph - N/A   Clear
8:55 AM 47.5 °F - 32.0 °F 55% 30.34 in 10.0 mi North 9.2 mph - N/A   Clear
9:15 AM 48.4 °F - 31.3 °F 52% 30.35 in 10.0 mi North 10.4 mph 18.4 mph N/A   Clear
9:35 AM 50.0 °F - 29.5 °F 45% 30.35 in 10.0 mi North 15.0 mph 19.6 mph N/A   Clear
9:55 AM 51.4 °F - 28.0 °F 40% 30.36 in 10.0 mi North 9.2 mph 19.6 mph N/A   Clear
10:15 AM 52.3 °F - 26.8 °F 37% 30.36 in 10.0 mi North 15.0 mph 19.6 mph N/A   Clear
10:35 AM 52.9 °F - 26.2 °F 36% 30.36 in 10.0 mi North 15.0 mph 21.9 mph N/A   Clear
10:55 AM 54.7 °F - 26.8 °F 34% 30.36 in 10.0 mi North 12.7 mph 19.6 mph N/A   Clear
11:10 AM 56.1 °F - 27.9 °F 34% 30.36 in 10.0 mi North 10.4 mph - N/A   Clear
11:35 AM 57.0 °F - 27.7 °F 33% 30.36 in 10.0 mi NNW 10.4 mph - N/A   Clear
11:55 AM 58.1 °F - 26.4 °F 30% 30.35 in 10.0 mi North 11.5 mph - N/A   Clear
12:15 PM 58.6 °F - 24.6 °F 27% 30.34 in 10.0 mi North 10.4 mph - N/A   Clear
12:35 PM 59.4 °F - 25.9 °F 28% 30.33 in 10.0 mi NNW 6.9 mph - N/A   Clear
12:55 PM 60.3 °F - 26.4 °F 28% 30.32 in 10.0 mi North 10.4 mph 19.6 mph N/A   Clear
1:15 PM 60.1 °F - 26.2 °F 28% 30.31 in 10.0 mi North 6.9 mph - N/A   Clear
1:35 PM 60.6 °F - 26.2 °F 27% 30.31 in 10.0 mi NW 8.1 mph - N/A   Clear
1:55 PM 60.3 °F - 25.5 °F 27% 30.30 in 10.0 mi NNW 8.1 mph - N/A   Clear
2:15 PM 61.0 °F - 26.4 °F 27% 30.30 in 10.0 mi NNW 9.2 mph - N/A   Clear
2:35 PM 61.0 °F - 24.4 °F 25% 30.30 in 10.0 mi NW 9.2 mph - N/A   Clear
2:55 PM 61.3 °F - 24.6 °F 25% 30.30 in 10.0 mi NNW 4.6 mph - N/A   Clear
3:15 PM 61.5 °F - 25.3 °F 25% 30.30 in 10.0 mi NNW 8.1 mph - N/A   Clear
3:35 PM 61.5 °F - 26.1 °F 26% 30.30 in 10.0 mi NNW 8.1 mph - N/A   Clear
3:55 PM 60.8 °F - 25.9 °F 26% 30.30 in 10.0 mi NNW 8.1 mph - N/A   Clear
4:15 PM 60.1 °F - 25.2 °F 26% 30.30 in 10.0 mi NW 4.6 mph - N/A   Clear
4:35 PM 59.4 °F - 26.1 °F 28% 30.30 in 10.0 mi NNW 8.1 mph - N/A   Clear
4:55 PM 58.1 °F - 26.4 °F 30% 30.31 in 10.0 mi NNW 5.8 mph - N/A   Clear
5:15 PM 56.5 °F - 28.0 °F 34% 30.30 in 10.0 mi NW 3.5 mph - N/A   Clear
5:35 PM 54.1 °F - 30.4 °F 40% 30.30 in 10.0 mi Calm Calm - N/A   Clear
5:55 PM 47.3 °F - 34.0 °F 60% 30.30 in 10.0 mi Calm Calm - N/A   Clear
6:15 PM 47.7 °F - 33.3 °F 57% 30.30 in 10.0 mi Calm Calm - N/A   Clear
6:35 PM 45.3 °F - 33.4 °F 63% 30.31 in 10.0 mi Calm Calm - N/A   Clear
6:55 PM 42.3 °F - 35.8 °F 78% 30.31 in 10.0 mi Calm Calm - N/A   Clear
7:15 PM 43.3 °F - 36.1 °F 76% 30.32 in 10.0 mi Calm Calm - N/A   Clear
7:35 PM 39.7 °F - 37.0 °F 90% 30.32 in 10.0 mi Calm Calm - N/A   Clear
7:55 PM 41.0 °F - 36.0 °F 82% 30.32 in 10.0 mi Calm Calm - N/A   Clear
8:15 PM 39.6 °F - 36.3 °F 88% 30.33 in 10.0 mi Calm Calm - N/A   Clear
8:35 PM 39.0 °F - 36.0 °F 89% 30.33 in 10.0 mi Calm Calm - N/A   Clear
8:55 PM 37.9 °F - 36.5 °F 95% 30.33 in 10.0 mi Calm Calm - N/A   Clear
9:15 PM 37.9 °F - 35.2 °F 90% 30.33 in 10.0 mi Calm Calm - N/A   Clear
9:35 PM 36.7 °F - 35.2 °F 95% 30.33 in 10.0 mi Calm Calm - N/A   Clear
9:55 PM 37.0 °F - 36.0 °F 96% 30.34 in 10.0 mi Calm Calm - N/A   Clear
10:15 PM 36.7 °F - 36.1 °F 98% 30.34 in 10.0 mi Calm Calm - N/A   Clear
10:35 PM 36.7 °F - 35.6 °F 96% 30.34 in 10.0 mi Calm Calm - N/A   Clear
10:55 PM 36.1 °F - 35.1 °F 96% 30.34 in 10.0 mi Calm Calm - N/A   Clear
11:15 PM 36.1 °F - 35.6 °F 98% 30.35 in 10.0 mi Calm Calm - N/A   Clear
11:35 PM 36.5 °F - 35.2 °F 95% 30.34 in 10.0 mi Calm Calm - N/A   Clear
11:55 PM 35.2 °F - 34.0 °F 95% 30.34 in 10.0 mi Calm Calm - N/A   Clear